FW3814 Weather Reports


Display with metric or nautical units.
time (UTC)temp
F
wind
direction
speed
MPH
gust
MPH
rain 1hr
in
rain 24hr
in
rain mn
in
humidity
%
barometer
mb
20260504050504 55 0 0.0 0.0 0.00 0.00 0.00 53 1015.3
20260504050004 55 0 0.0 0.0 0.00 0.00 0.00 53 1015.5
20260504045504 55 0 0.0 0.0 0.00 0.00 0.00 52 1015.3
20260504045004 55 0 0.0 0.0 0.00 0.00 0.00 52 1015.0
20260504044504 55 0 0.0 0.0 0.00 0.00 0.00 53 1015.2
20260504044004 55 0 0.0 0.0 0.00 0.00 0.00 53 1015.0
20260504043504 55 0 0.0 0.0 0.00 0.00 0.00 52 1015.0
20260504043004 55 0 0.0 0.0 0.00 0.00 0.00 51 1015.2
20260504042504 55 0 0.0 0.0 0.00 0.00 0.00 50 1015.2
20260504042004 55 0 0.0 0.0 0.00 0.00 0.00 50 1015.2
20260504041525 55 0 0.0 0.0 0.00 0.00 0.00 48 1015.3
20260504041004 56 0 0.0 0.0 0.00 0.00 0.00 48 1015.1
20260504040504 56 0 0.0 0.0 0.00 0.00 0.00 46 1015.2
20260504040004 56 0 0.0 0.0 0.00 0.00 0.00 46 1015.0
20260504035525 56 0 0.0 0.0 0.00 0.00 0.00 45 1015.1
20260504035004 56 0 0.0 0.0 0.00 0.00 0.00 44 1015.0
20260504034504 56 0 0.0 0.0 0.00 0.00 0.00 44 1015.1
20260504034004 57 0 0.0 0.0 0.00 0.00 0.00 44 1015.2
20260504033525 57 0 0.0 0.0 0.00 0.00 0.00 44 1015.0
20260504033004 58 0 0.0 0.0 0.00 0.00 0.00 44 1014.9
20260504032504 58 0 0.0 0.0 0.00 0.00 0.00 45 1015.2
20260504032025 58 0 0.0 0.0 0.00 0.00 0.00 44 1015.0
20260504031504 58 0 0.0 0.0 0.00 0.00 0.00 44 1015.1
20260504031025 58 17 0.0 2.0 0.00 0.00 0.00 44 1015.1
20260504030504 58 11 1.0 2.0 0.00 0.00 0.00 43 1015.1
20260504030004 58 360 0.0 2.0 0.00 0.00 0.00 42 1015.2
20260504025504 58 0 0.0 0.0 0.00 0.00 0.00 42 1015.1
20260504025004 58 0 0.0 0.0 0.00 0.00 0.00 42 1015.3
20260504024504 58 0 0.0 0.0 0.00 0.00 0.00 42 1015.2
20260504024025 58 0 0.0 0.0 0.00 0.00 0.00 42 1015.1
20260504023525 58 0 0.0 0.0 0.00 0.00 0.00 42 1015.5
20260504023004 58 0 0.0 0.0 0.00 0.00 0.00 42 1015.6
20260504022504 58 0 0.0 0.0 0.00 0.00 0.00 42 1015.5
20260504022004 58 357 0.0 2.0 0.00 0.00 0.00 42 1015.3
20260504021504 58 357 0.0 2.0 0.00 0.00 0.00 43 1015.3
20260504021004 58 0 0.0 0.0 0.00 0.00 0.00 43 1015.3
20260504020504 59 0 0.0 0.0 0.00 0.00 0.00 40 1015.5
20260504020004 59 0 0.0 0.0 0.00 0.00 0.00 40 1015.2
20260504015525 59 0 0.0 0.0 0.00 0.00 0.00 40 1015.3
20260504015004 59 0 0.0 0.0 0.00 0.00 0.00 40 1015.5
20260504014504 59 0 0.0 0.0 0.00 0.00 0.00 40 1015.6
20260504014004 60 0 0.0 0.0 0.00 0.00 0.00 40 1015.3
20260504013504 60 0 0.0 0.0 0.00 0.00 0.00 40 1015.5
20260504013004 60 0 0.0 0.0 0.00 0.00 0.00 40 1015.2
20260504012525 60 0 0.0 0.0 0.00 0.00 0.00 40 1015.3
20260504012025 60 0 0.0 0.0 0.00 0.00 0.00 41 1015.2
20260504011504 60 0 0.0 0.0 0.00 0.00 0.00 41 1015.5
20260504011004 60 0 0.0 0.0 0.00 0.00 0.00 41 1015.3
20260504010504 60 0 0.0 0.0 0.00 0.00 0.00 41 1015.3
20260504010025 60 0 0.0 0.0 0.00 0.00 0.00 41 1015.3
20260504005504 61 0 0.0 0.0 0.00 0.00 0.00 41 1015.2
20260504005004 61 325 0.0 2.0 0.00 0.00 0.00 41 1015.5
20260504004504 61 325 0.0 2.0 0.00 0.00 0.00 41 1015.6
20260504004025 61 360 0.0 1.0 0.00 0.00 0.00 42 1015.6
20260504003504 61 0 0.0 0.0 0.00 0.00 0.00 42 1015.7
20260504003004 61 0 0.0 0.0 0.00 0.00 0.00 43 1015.7
20260504002504 61 0 0.0 0.0 0.00 0.00 0.00 44 1015.7
20260504002004 61 0 0.0 0.0 0.00 0.00 0.00 44 1015.9
20260504001504 61 0 0.0 0.0 0.00 0.00 0.00 45 1016.0
20260504001004 61 0 0.0 0.0 0.00 0.00 0.00 45 1016.0
20260504000504 60 0 0.0 0.0 0.00 0.00 0.00 46 1016.3
20260504000004 60 0 0.0 0.0 0.00 0.00 0.00 47 1016.0
20260503235525 60 270 0.0 1.0 0.00 0.00 0.00 48 1016.0
20260503235004 60 315 0.0 1.0 0.00 0.00 0.00 49 1016.0
20260503234504 60 333 0.0 1.0 0.00 0.00 0.00 49 1016.1
20260503234004 60 315 0.0 1.0 0.00 0.00 0.00 50 1016.3
20260503233504 60 0 0.0 0.0 0.00 0.00 0.00 50 1016.0
20260503233004 60 0 0.0 0.0 0.00 0.00 0.00 51 1016.3
20260503232504 60 0 0.0 0.0 0.00 0.00 0.00 51 1016.2
20260503232004 60 0 0.0 0.0 0.00 0.00 0.00 51 1016.2
20260503231525 60 0 0.0 0.0 0.00 0.00 0.00 52 1016.3
20260503231003 60 0 0.0 0.0 0.00 0.00 0.00 52 1016.3
20260503230503 60 0 0.0 0.0 0.00 0.00 0.00 52 1016.3
20260503230003 60 0 0.0 0.0 0.00 0.00 0.00 53 1016.3
20260503225503 60 202 0.0 1.0 0.00 0.00 0.00 53 1016.5
20260503225003 60 202 0.0 1.0 0.00 0.00 0.00 53 1016.4
20260503224503 60 0 0.0 0.0 0.00 0.00 0.00 53 1016.3
20260503224003 60 0 0.0 0.0 0.00 0.00 0.00 52 1016.4
20260503223503 60 0 0.0 0.0 0.00 0.00 0.00 52 1016.4
20260503223003 60 0 0.0 0.0 0.00 0.00 0.00 51 1016.3
20260503222503 61 0 0.0 0.0 0.00 0.00 0.00 51 1016.4
20260503222003 61 0 0.0 0.0 0.00 0.00 0.00 51 1016.3
20260503221524 61 0 0.0 0.0 0.00 0.00 0.00 52 1016.3
20260503221003 61 0 0.0 0.0 0.00 0.00 0.00 51 1016.2
20260503220503 61 0 0.0 0.0 0.00 0.00 0.00 51 1016.3
20260503220003 61 0 0.0 0.0 0.00 0.00 0.00 51 1016.3
20260503215503 61 0 0.0 0.0 0.00 0.00 0.00 51 1016.2
20260503215024 61 0 0.0 0.0 0.00 0.00 0.00 51 1016.1
20260503214503 61 292 0.0 1.0 0.00 0.00 0.00 51 1016.2
20260503214003 61 292 0.0 1.0 0.00 0.00 0.00 51 1016.2
20260503213503 61 22 0.0 1.0 0.00 0.00 0.00 51 1016.3
20260503213003 61 11 0.0 1.0 0.00 0.00 0.00 51 1016.1
20260503212524 61 286 0.0 1.0 0.00 0.00 0.00 51 1016.0
20260503212003 61 224 0.0 2.0 0.00 0.00 0.00 51 1016.1
20260503211524 61 211 1.0 3.0 0.00 0.00 0.00 51 1016.0
20260503211003 61 174 1.0 3.0 0.00 0.00 0.00 50 1016.0
20260503210503 61 135 0.0 1.0 0.00 0.00 0.00 50 1016.0
20260503210003 61 174 0.0 1.0 0.00 0.00 0.00 50 1015.9
20260503205503 61 193 1.0 3.0 0.00 0.00 0.00 50 1016.0
20260503205003 61 185 2.0 4.0 0.00 0.00 0.00 50 1016.0
20260503204524 61 191 2.0 4.0 0.00 0.00 0.00 50 1016.1
20260503204003 62 215 1.0 3.0 0.00 0.00 0.00 49 1015.9
20260503203503 62 204 1.0 2.0 0.00 0.00 0.00 49 1016.0
20260503203003 62 210 1.0 2.0 0.00 0.00 0.00 49 1016.0
20260503202503 62 222 0.0 2.0 0.00 0.00 0.00 49 1015.9
20260503202003 62 202 0.0 1.0 0.00 0.00 0.00 49 1016.0
20260503201524 62 224 1.0 2.0 0.00 0.00 0.00 49 1016.0
20260503201003 62 229 1.0 2.0 0.00 0.00 0.00 48 1016.0
20260503200503 63 219 1.0 2.0 0.00 0.00 0.00 48 1016.0
20260503200003 63 220 1.0 2.0 0.00 0.00 0.00 48 1016.1
20260503195503 63 210 1.0 2.0 0.00 0.00 0.00 49 1016.0
20260503195003 63 205 1.0 2.0 0.00 0.00 0.00 49 1015.9
20260503194503 63 202 0.0 2.0 0.00 0.00 0.00 48 1015.9
20260503194003 64 226 0.0 2.0 0.00 0.00 0.00 44 1015.8
20260503193503 64 224 0.0 2.0 0.00 0.00 0.00 44 1015.6
20260503193003 64 210 0.0 2.0 0.00 0.00 0.00 44 1015.7
20260503192503 64 209 1.0 2.0 0.00 0.00 0.00 44 1015.7
20260503192024 64 211 2.0 4.0 0.00 0.00 0.00 44 1015.3
20260503191503 64 212 2.0 4.0 0.00 0.00 0.00 44 1015.6
20260503191003 64 205 3.0 4.0 0.00 0.00 0.00 44 1015.6
20260503190524 64 203 3.0 4.0 0.00 0.00 0.00 44 1015.6
20260503190003 64 213 3.0 4.0 0.00 0.00 0.00 44 1015.5
20260503185503 65 221 3.0 6.0 0.00 0.00 0.00 44 1015.2
20260503185003 65 221 1.0 6.0 0.00 0.00 0.00 42 1015.1
20260503184503 66 0 0.0 0.0 0.00 0.00 0.00 41 1015.2
20260503184003 66 0 0.0 0.0 0.00 0.00 0.00 41 1015.2
20260503183503 66 0 0.0 0.0 0.00 0.00 0.00 41 1015.2
20260503183003 66 0 0.0 0.0 0.00 0.00 0.00 41 1015.1
20260503182503 66 0 0.0 0.0 0.00 0.00 0.00 41 1015.1
20260503182004 66 0 0.0 0.0 0.00 0.00 0.00 41 1015.2
20260503181524 67 0 0.0 0.0 0.00 0.00 0.00 40 1015.1
20260503181003 67 0 0.0 0.0 0.00 0.00 0.00 40 1015.0
20260503180503 67 0 0.0 0.0 0.00 0.00 0.00 40 1015.2
20260503180003 67 0 0.0 0.0 0.00 0.00 0.00 40 1015.1
20260503175503 68 0 0.0 0.0 0.00 0.00 0.00 40 1015.1
20260503175003 68 0 0.0 0.0 0.00 0.00 0.00 40 1015.2
20260503174539 68 0 0.0 0.0 0.00 0.00 0.00 40 1015.2
20260503174003 68 0 0.0 0.0 0.00 0.00 0.00 40 1015.0
20260503173504 68 0 0.0 0.0 0.00 0.00 0.00 40 1015.1
20260503173003 68 0 0.0 0.0 0.00 0.00 0.00 39 1015.1
20260503172503 69 0 0.0 0.0 0.00 0.00 0.00 38 1015.2
20260503172024 69 0 0.0 0.0 0.00 0.00 0.00 37 1015.3
20260503171503 69 270 0.0 1.0 0.00 0.00 0.00 37 1015.2
20260503171003 69 270 0.0 1.0 0.00 0.00 0.00 36 1015.2
20260503170503 69 0 0.0 0.0 0.00 0.00 0.00 35 1015.0
20260503151003 71 270 4.0 5.0 0.00 0.00 0.00 34 1015.9
20260503150503 71 259 4.0 5.0 0.00 0.00 0.00 35 1015.9
20260503131003 72 247 4.0 7.0 0.00 0.00 0.00 36 1017.0
20260503130503 72 243 4.0 7.0 0.00 0.00 0.00 36 1017.0
20260503110504 70 246 5.0 8.0 0.00 0.00 0.00 36 1017.3
20260503081504 67 151 3.0 6.0 0.00 0.00 0.00 49 1017.7
20260503081005 67 141 6.0 6.0 0.00 0.00 0.00 48 1017.7
20260503080504 67 127 5.0 6.0 0.00 0.00 0.00 48 1017.7
20260503072504 65 39 0.0 4.0 0.00 0.00 0.00 52 1017.7
20260503072004 65 67 0.0 1.0 0.00 0.00 0.00 53 1017.7
20260503071505 64 67 0.0 1.0 0.00 0.00 0.00 54 1017.6
20260503071004 64 0 0.0 0.0 0.00 0.00 0.00 56 1017.8
20260503070504 62 360 0.0 1.0 0.00 0.00 0.00 60 1017.6